| time (UTC) | temp C | wind direction | speed KPH | gust KPH | rain 1hr cm | rain 24hr cm | rain mn cm | humidity % | barometer mb |
| 20260502204556 | 32 | 244 | 8.0 | 25.7 | 0.00 | 0.00 | 0.00 | 8 | 950.5 |
| 20260502203053 | 32 | 136 | 8.0 | 17.7 | 0.00 | 0.00 | 0.00 | 8 | 950.7 |
| 20260502201548 | 32 | 255 | 9.7 | 17.7 | 0.00 | 0.00 | 0.00 | 8 | 950.8 |
| 20260502200051 | 31 | 6.4 | 17.7 | 0.00 | 0.00 | 0.00 | 8 | 951.1 | |
| 20260502194544 | 31 | 8.0 | 20.9 | 0.00 | 0.00 | 0.00 | 9 | 951.3 | |
| 20260502193046 | 31 | 209 | 4.8 | 14.5 | 0.00 | 0.00 | 0.00 | 8 | 951.5 |
| 20260502191544 | 31 | 9.7 | 22.5 | 0.00 | 0.00 | 0.00 | 8 | 951.7 | |
| 20260502190044 | 30 | 332 | 6.4 | 25.7 | 0.00 | 0.00 | 0.00 | 9 | 951.9 |
| 20260502184540 | 30 | 319 | 14.5 | 24.1 | 0.00 | 0.00 | 0.00 | 10 | 952.1 |
| 20260502183038 | 30 | 23 | 16.1 | 25.7 | 0.00 | 0.00 | 0.00 | 11 | 952.3 |
| 20260502181543 | 30 | 326 | 9.7 | 25.7 | 0.00 | 0.00 | 0.00 | 11 | 952.4 |
| 20260502163030 | 26 | 355 | 17.7 | 32.2 | 0.00 | 0.00 | 0.00 | 13 | 953.0 |
| 20260502161517 | 26 | 14.5 | 29.0 | 0.00 | 0.00 | 0.00 | 13 | 953.0 | |
| 20260502151517 | 24 | 11.3 | 27.4 | 0.00 | 0.00 | 0.00 | 14 | 953.0 | |
| 20260502123049 | 22 | 43 | 6.4 | 19.3 | 0.00 | 0.00 | 0.00 | 15 | 951.8 |
| 20260502121541 | 22 | 30 | 9.7 | 19.3 | 0.00 | 0.00 | 0.00 | 14 | 951.6 |
| 20260502114537 | 22 | 67 | 1.6 | 14.5 | 0.00 | 0.00 | 0.00 | 14 | 951.3 |
| 20260502113037 | 23 | 34 | 4.8 | 16.1 | 0.00 | 0.00 | 0.00 | 14 | 951.4 |
| 20260502111539 | 22 | 76 | 0.0 | 14.5 | 0.00 | 0.00 | 0.00 | 14 | 951.3 |
| 20260502110035 | 22 | 29 | 0.0 | 6.4 | 0.00 | 0.00 | 0.00 | 14 | 951.4 |
| 20260502104537 | 22 | 27 | 0.0 | 11.3 | 0.00 | 0.00 | 0.00 | 14 | 951.4 |
| 20260502103033 | 22 | 28 | 0.0 | 6.4 | 0.00 | 0.00 | 0.00 | 14 | 951.3 |
| 20260502101532 | 22 | 30 | 0.0 | 9.7 | 0.00 | 0.00 | 0.00 | 14 | 951.3 |
| 20260502091528 | 23 | 73 | 0.0 | 3.2 | 0.00 | 0.00 | 0.00 | 13 | 951.3 |
| 20260502071516 | 24 | 29 | 0.0 | 3.2 | 0.00 | 0.00 | 0.00 | 13 | 951.1 |
| 20260502070013 | 25 | 338 | 0.0 | 1.6 | 0.00 | 0.00 | 0.00 | 12 | 951.0 |
| 20260502064512 | 25 | 27 | 0.0 | 1.6 | 0.00 | 0.00 | 0.00 | 12 | 950.9 |
| 20260502063012 | 25 | 330 | 0.0 | 1.6 | 0.00 | 0.00 | 0.00 | 12 | 950.8 |
| 20260502061519 | 26 | 359 | 0.0 | 6.4 | 0.00 | 0.00 | 0.00 | 12 | 950.7 |
| 20260502060011 | 25 | 17 | 1.6 | 6.4 | 0.00 | 0.00 | 0.00 | 13 | 950.5 |
| 20260502054510 | 25 | 339 | 0.0 | 4.8 | 0.00 | 0.00 | 0.00 | 13 | 950.5 |
| 20260502053010 | 25 | 30 | 0.0 | 3.2 | 0.00 | 0.00 | 0.00 | 12 | 950.6 |
| 20260502051520 | 25 | 0.0 | 1.6 | 0.00 | 0.00 | 0.00 | 12 | 950.6 | |
| 20260502050008 | 26 | 27 | 0.0 | 1.6 | 0.00 | 0.00 | 0.00 | 12 | 950.5 |
| 20260502044507 | 26 | 82 | 0.0 | 3.2 | 0.00 | 0.00 | 0.00 | 11 | 950.3 |
| 20260502043007 | 26 | 70 | 0.0 | 3.2 | 0.00 | 0.00 | 0.00 | 11 | 950.1 |
| 20260502041517 | 27 | 0.0 | 4.8 | 0.00 | 0.00 | 0.00 | 11 | 950.0 | |
| 20260502040012 | 27 | 82 | 0.0 | 3.2 | 0.00 | 0.00 | 0.00 | 12 | 949.8 |
| 20260502034507 | 27 | 80 | 0.0 | 3.2 | 0.00 | 0.00 | 0.00 | 12 | 949.8 |
| 20260502033004 | 28 | 0.0 | 9.7 | 0.00 | 0.00 | 0.00 | 12 | 949.5 | |
| 20260502031503 | 28 | 1.6 | 17.7 | 0.00 | 0.00 | 0.00 | 12 | 949.3 | |
| 20260502030001 | 28 | 29 | 9.7 | 24.1 | 0.00 | 0.00 | 0.00 | 11 | 949.1 |
| 20260502024607 | 29 | 44 | 16.1 | 30.6 | 0.00 | 0.00 | 0.00 | 11 | 948.9 |
| 20260502023100 | 29 | 27 | 16.1 | 24.1 | 0.00 | 0.00 | 0.00 | 11 | 948.7 |
| 20260502021605 | 30 | 25 | 19.3 | 30.6 | 0.00 | 0.00 | 0.00 | 11 | 948.7 |
| 20260502020058 | 30 | 29 | 8.0 | 25.7 | 0.00 | 0.00 | 0.00 | 11 | 948.3 |
| 20260502014558 | 30 | 51 | 19.3 | 30.6 | 0.00 | 0.00 | 0.00 | 11 | 948.2 |
| 20260502013057 | 31 | 335 | 22.5 | 35.4 | 0.00 | 0.00 | 0.00 | 11 | 948.1 |
| 20260502011557 | 31 | 12 | 14.5 | 30.6 | 0.00 | 0.00 | 0.00 | 11 | 948.0 |
| 20260502010108 | 31 | 20 | 19.3 | 37.0 | 0.00 | 0.00 | 0.00 | 11 | 948.0 |
| 20260502004600 | 31 | 352 | 20.9 | 33.8 | 0.00 | 0.00 | 0.00 | 11 | 948.0 |
| 20260502003100 | 31 | 16.1 | 32.2 | 0.00 | 0.00 | 0.00 | 11 | 948.0 | |
| 20260502001554 | 31 | 354 | 17.7 | 33.8 | 0.00 | 0.00 | 0.00 | 11 | 948.0 |
| 20260502000053 | 32 | 23 | 9.7 | 30.6 | 0.00 | 0.00 | 0.00 | 11 | 948.1 |
| 20260501234552 | 31 | 20.9 | 35.4 | 0.00 | 0.00 | 0.00 | 12 | 948.1 | |
| 20260501233055 | 32 | 27 | 22.5 | 38.6 | 0.00 | 0.00 | 0.00 | 10 | 948.2 |
| 20260501231554 | 32 | 319 | 9.7 | 27.4 | 0.00 | 0.00 | 0.00 | 11 | 948.3 |
| 20260501230059 | 32 | 352 | 11.3 | 30.6 | 0.00 | 0.00 | 0.00 | 10 | 948.4 |
| 20260501224549 | 31 | 350 | 20.9 | 35.4 | 0.00 | 0.00 | 0.00 | 11 | 948.5 |
| 20260501223054 | 32 | 18 | 12.9 | 29.0 | 0.00 | 0.00 | 0.00 | 11 | 948.8 |
| 20260501221547 | 31 | 341 | 14.5 | 38.6 | 0.00 | 0.00 | 0.00 | 12 | 949.0 |
| 20260501220048 | 31 | 319 | 24.1 | 32.2 | 0.00 | 0.00 | 0.00 | 11 | 949.0 |
| 20260501214554 | 31 | 350 | 22.5 | 38.6 | 0.00 | 0.00 | 0.00 | 12 | 949.3 |
| 20260501213044 | 31 | 351 | 22.5 | 38.6 | 0.00 | 0.00 | 0.00 | 11 | 949.6 |
| 20260501211549 | 31 | 344 | 24.1 | 35.4 | 0.00 | 0.00 | 0.00 | 12 | 949.6 |
| 20260501210047 | 31 | 321 | 22.5 | 38.6 | 0.00 | 0.00 | 0.00 | 12 | 949.7 |